OBJECT A, 61227

Orbit data source: Space-Track

You're viewing an Uncataloged Satellite

Recently launched and/or uncataloged satellites may have evolving metadata. Metadata may include but not limited to: Owner, Maufacturer, Bus, Motor, and Mission.

OBJECT A, 61227 is a Chinese satellite in SSO that was launched on Tue, 24 Sep 2024 UTC via a JIELONG-3 launch vehicle from the Yellow Sea Launch Area, China (YSLA). Unknown objects in Earth's orbit typically refer to objects detected orbiting the Earth but have not yet been identified or cataloged. These objects could be anything from previously untracked satellites, spent rocket stages, debris from satellite collisions, or even natural meteoroids temporarily captured by Earth's gravity.

Loading next visibility...
Identifier
61227, 2024-173A
Orbit
SSO
Country
Flag of CNCN / PRC
Related business
None
Manufacturer
Taizhou Xingkong
Mission
Operational Commercial Imaging
Bus & Motor
JTX, Unknown motor
Mass
~50 kg wet, ~50 kg dry
Launch date (UTC)
2024-09-24 (1 year ago)
Launch vehicle
JIELONG-3
Launch site
Yellow Sea Launch Area, China (YSLA)
Object type
Unknown
Shape & HBR
Box + 1 Pan, 2.5 m
Radar Cross Section
5.339 m², Medium (>0.1 m² and < 1m²)

Expand to show TLE details & history
Last TLE update: 5 hours ago

TLE from 5 hours ago
0 OBJECT A
1 61227U 24173A   25261.30093186  .00025445  00000-0  72204-3 0  9999
2 61227  97.3699 338.2594 0007777 155.6664 204.4949 15.36172044 54923
Epoch: 2025-09-18T07:13Z
TLE epoch observation values (Epoch: 2025-09-18T07:13:20.512Z)
Latitude
-0°
Longitude
-127.54056°
Altitude
465.394 km
Speed
7.631 km/s
True Right ascension
22h 33m 02s
True Declination
0° 00' 00"
Sunlit
Object was in full shadow at epoch
Visualization orbit readout
Latitude
Unknown
Longitude
Unknown
Altitude
Unknown
Speed
Unknown
Apparent Right ascension
Unknown
Apparent Declination
Unknown
Sunlit
N/A
Visualization observer readout
Local Sidereal Time
04:59:34
Azimuth
Unknown
Elevation
Unknown
Doppler factor
Unknown
Orbital elements
Apogee altitude
459.698 km
Perigee altitude
449.071 km
Semi-major axis
6,832.521 km
Eccentricity
0.00078
Inclination
97.3699°
RAAN
338.2594°
Arg. of periapsis
155.6664°
True anomaly
204.45798°
Mean anomaly
204.4949°
Eccentric anomaly
204.47644°
Mean motion
3.84301 °/min
Orbital period
93.68 mins
BSTAR
0.00072204
Loading maneuver chart data...
Computing Atmospheric mass density...
Loading historical data...
Loading historical data...
Loading historical data...
Loading historical data...
Loading historical data...
Loading historical data...
Loading historical data...

Documentation

Showing up to 5 results
|